This demonstration page uses our WeatherBlox Daily Observations layout. Learn more.

Left ArrowRight Arrow

38.80484, -77.04692

Hourly Observations for December 12, 2020

Temp ( °F °C ) Dew Point ( °F °C ) Humidity (%) Winds ( mph kmh ) Pressure ( in mb ) Visibility ( mi km ) Precip ( " mm )
12:52 am 00:52 Mostly Cloudy 42 5.6 39 3.9 89 89 N N/A 30.11 1020 8 13 N/A
1:52 am 01:52 Mostly Cloudy 43 6.1 40 4.4 89 89 N N/A 30.10 1019 9 14 N/A
2:52 am 02:52 Partly Cloudy with Mist and Fog 42 5.6 40 4.4 92 92 N N/A 30.10 1019 5 8 N/A
3:52 am 03:52 Mostly Cloudy 41 5 39 3.9 93 93 N N/A 30.10 1019 7 11 N/A
4:52 am 04:52 Cloudy 43 6.1 40 4.4 89 89 ENE 3 6 30.09 1019 7 11 N/A
5:20 am 05:20 Mostly Clear 42 5.6 39 3.9 89 89 NE 3 6 30.10 1019 8 13 N/A
5:52 am 05:52 Mostly Cloudy 42 5.6 39 3.9 89 89 NNE 3 6 30.09 1019 8 13 N/A
6:04 am 06:04 Cloudy 43 6.1 40 4.4 89 89 NE 3 6 30.10 1019 8 13 N/A
6:34 am 06:34 Cloudy 42 5.6 40 4.4 92 92 ENE 3 6 30.10 1019 7 11 N/A
6:52 am 06:52 Cloudy 43 6.1 41 5 93 93 N N/A 30.09 1019 8 13 N/A
7:33 am 07:33 Cloudy with Mist and Fog 43 6.1 41 5 93 93 N N/A 30.10 1019 6 10 N/A
7:39 am 07:39 Cloudy with Mist and Fog 43 6.1 42 5.6 97 97 N N/A 30.10 1019 1 1 N/A
7:44 am 07:44 Mostly Cloudy with Fog 43 6.1 42 5.6 97 97 N N/A 30.10 1019 0 0 N/A
7:47 am 07:47 Mostly Cloudy with Fog 43 6 43 6 100 100 N N/A 30.10 1019 N/A N/A
7:52 am 07:52 Mostly Cloudy with Fog 43 6.1 42 5.6 97 97 N N/A 30.09 1019 N/A N/A
8:52 am 08:52 Mostly Cloudy with Fog 45 7.2 44 6.7 97 97 N N/A 30.09 1019 N/A N/A
9:14 am 09:14 Mostly Cloudy with Fog 46 7.8 45 7.2 96 96 N N/A 30.08 1019 0 0 N/A
9:25 am 09:25 Mostly Cloudy with Mist and Fog 49 9.4 47 8.3 93 93 S 7 11 30.08 1019 1 2 N/A
9:28 am 09:28 Mostly Cloudy with Mist and Fog 49 9.4 47 8.3 93 93 SSW 7 11 30.08 1019 3 5 N/A
9:32 am 09:32 Mostly Cloudy with Mist and Fog 50 10 48 8.9 93 93 S 8 13 30.08 1019 5 8 N/A
9:39 am 09:39 Mostly Cloudy 50 10 49 9.4 96 96 S 9 15 30.08 1019 7 11 N/A
9:52 am 09:52 Mostly Cloudy 51 10.6 49 9.4 92 92 S 8 13 30.07 1018 9 14 N/A
10:52 am 10:52 Mostly Cloudy 54 12.2 49 9.4 83 83 S 7 11 30.05 1018 10 16 N/A
11:52 am 11:52 Mostly Cloudy 57 13.9 48 8.9 72 72 S 10 17 30.00 1016 10 16 N/A
12:52 pm 12:52 Mostly Cloudy 57 13.9 48 8.9 72 72 S 13 20 29.99 1016 10 16 N/A
1:52 pm 13:52 Mostly Cloudy 63 17.2 47 8.3 56 56 SSW 16 26 29.96 1015 10 16 N/A
2:52 pm 14:52 Partly Cloudy 61 16.1 46 7.8 58 58 S 14 22 29.94 1014 10 16 N/A
3:52 pm 15:52 Partly Cloudy 62 16.7 46 7.8 56 56 S 14 22 29.93 1014 10 16 N/A
4:52 pm 16:52 Partly Cloudy 55 12.8 43 6.1 64 64 S 14 22 29.93 1014 10 16 N/A
5:52 pm 17:52 Partly Cloudy 55 12.8 45 7.2 69 69 S 14 22 29.94 1014 10 16 N/A
6:52 pm 18:52 Mostly Clear 53 11.7 46 7.8 77 77 S 12 19 29.95 1014 10 16 N/A
7:52 pm 19:52 Partly Cloudy 52 11.1 45 7.2 77 77 S 14 22 29.95 1014 10 16 N/A
8:52 pm 20:52 Mostly Cloudy 55 12.8 46 7.8 72 72 S 13 20 29.95 1014 10 16 N/A
9:52 pm 21:52 Cloudy 53 11.7 45 7.2 74 74 S 10 17 29.96 1014 10 16 N/A
10:52 pm 22:52 Cloudy 56 13.3 49 9.4 77 77 S 9 15 29.94 1014 10 16 0.00 0.00
11:52 pm 23:52 Cloudy 56 13.3 48 8.9 75 75 S 12 19 29.94 1014 10 16 N/A

Powered by AerisWeather